Tracking 30995 objects as of 5-Jul-2025
HD Live streaming from Space Station
objects crossing your sky now

STARLINK-3189

Track STARLINK-3189 now!
10-day predictions
STARLINK-3189 is classified as:


NORAD ID: 51464
Int'l Code: 2022-010J
Perigee: 546.1 km
Apogee: 547.7 km
Inclination: 53.2 °
Period: 95.4 minutes
Semi major axis: 6917 km
RCS: Unknown
Launch date: February 3, 2022
Source: United States (US)
Launch site: AIR FORCE EASTERN TEST RANGE (AFETR)
Your satellite tracking list
Your tracking list is empty




NASA's NSSDC Master Catalog

Two Line Element Set (TLE):
1 51464U 22010J   25186.55090159 -.00000688  00000-0 -25142-4 0  9993
2 51464  53.2187 308.5683 0001147 101.9238 258.1883 15.08833402189960
Source of the keplerian elements: AFSPC